Theta_e
326 320 318 325 331 323 327 326 324 325 326 325 326 326 327 328 331 339 344 342 337 336 348 342 338 337 343 345 346 347 348 348 347 347 345 343 342 340 338 337 335 332 327 326 324 319 317 317 315
325 321 320 326 334 328 326 324 324 324 324 325 326 326 326 328 330 334 332 341 335 339 349 345 338 337 339 346 345 346 346 347 347 346 344 341 337 337 334 334 332 327 324 320 317 317 317 316 316
325 321 320 331 336 337 331 323 324 324 324 325 327 328 327 329 333 337 337 341 336 341 347 347 336 337 336 341 342 342 342 344 345 343 336 334 332 333 333 332 328 325 320 317 317 317 318 318 317
325 323 321 321 329 334 330 327 325 324 323 323 325 329 328 330 333 339 342 341 336 340 345 349 332 335 336 335 336 338 339 341 339 333 329 327 328 330 330 328 326 323 318 317 317 317 319 321 320
325 324 325 322 321 325 326 326 323 324 324 324 327 330 330 330 334 341 342 341 336 338 342 351 333 334 336 336 335 334 335 335 331 328 326 325 327 328 328 326 325 321 318 317 317 318 319 321 322
325 325 327 326 323 321 322 323 327 327 325 326 328 330 331 329 334 338 341 341 337 336 341 350 339 334 335 336 335 334 332 331 329 329 325 325 326 328 328 326 325 321 318 317 317 317 318 321 323
325 326 326 327 326 323 321 322 324 329 328 327 329 330 331 329 332 338 341 338 335 336 341 348 348 341 333 335 336 335 332 330 330 329 327 326 326 326 328 327 325 322 319 318 317 317 318 320 322
326 325 326 326 328 327 324 324 323 326 329 328 328 330 330 328 326 333 341 338 335 337 340 344 346 344 345 344 335 336 335 332 331 329 329 328 328 328 329 328 327 324 322 320 320 318 319 320 321
323 328 326 326 327 327 325 325 325 327 328 328 328 329 328 325 324 328 335 340 336 337 339 342 342 343 342 342 344 337 336 335 333 333 332 332 340 341 342 337 338 328 325 324 324 321 322 323 324
323 324 324 325 326 327 326 326 327 327 328 329 330 328 326 324 325 326 332 339 337 336 337 340 341 341 341 340 343 347 345 344 344 344 346 344 342 343 343 342 337 335 329 327 327 325 325 328 330
320 323 321 323 324 326 327 327 325 326 327 328 330 327 325 324 324 325 330 332 340 335 336 339 344 344 343 340 342 344 342 343 343 345 346 346 343 344 345 342 344 342 338 338 336 335 333 331 331
318 319 321 321 323 324 324 325 324 324 325 324 328 325 323 325 323 324 326 332 332 338 336 338 343 347 347 343 342 342 341 341 342 343 347 347 346 345 343 340 339 342 340 340 337 336 335 334 332
315 316 316 317 318 318 319 322 322 323 323 318 321 322 322 322 322 322 325 329 331 331 338 338 340 344 346 346 341 341 340 339 340 342 345 345 344 342 341 339 338 337 337 336 337 335 334 335 334
315 315 315 316 316 316 316 317 318 319 318 317 323 326 324 322 322 320 323 329 334 329 328 332 340 339 342 336 336 339 341 338 339 338 339 345 342 341 339 340 338 335 334 333 334 335 335 336 335
314 314 315 315 315 315 316 316 317 318 316 316 316 319 323 323 325 321 320 322 324 323 320 327 339 343 344 342 342 335 337 338 337 337 337 340 343 340 340 336 335 333 333 335 334 335 336 336 337
313 313 313 314 313 314 313 316 317 316 316 316 316 315 318 317 321 319 318 319 321 323 328 326 321 333 344 344 340 339 339 337 337 336 335 339 341 339 340 334 334 334 334 334 335 337 338 339 339
314 312 313 314 314 314 315 315 316 315 316 316 316 315 315 316 317 318 317 317 318 319 314 322 327 328 335 345 342 342 341 340 337 336 335 337 339 339 336 334 335 335 334 334 337 339 340 342 342
314 314 313 314 314 314 314 315 315 316 315 316 316 315 315 316 316 317 317 316 317 319 321 314 324 328 326 337 346 343 342 341 340 336 336 335 338 337 337 336 332 331 332 334 339 342 343 343 344
313 314 314 314 314 313 314 314 315 315 315 315 315 315 316 316 316 315 315 316 318 320 323 323 320 327 326 328 333 338 343 343 342 342 338 337 338 338 336 334 330 326 331 330 342 345 345 345 344
312 313 314 314 313 313 314 314 314 314 315 315 315 316 316 316 316 315 314 317 319 320 321 321 323 319 319 321 327 330 335 337 345 343 343 340 339 338 337 332 335 331 330 342 346 346 346 346 346
313 313 313 313 312 313 313 314 314 314 315 315 314 315 315 315 314 314 316 318 318 319 319 319 321 322 321 315 318 322 331 335 339 341 345 345 341 341 340 339 339 343 343 345 347 348 346 346 346
313 312 312 312 313 314 313 314 314 314 314 314 315 315 315 315 314 316 318 317 317 317 317 318 319 321 321 322 321 320 322 333 336 337 341 346 347 344 343 345 346 345 345 345 347 348 347 348 347
313 312 312 313 314 314 313 315 314 314 314 315 315 314 314 314 315 317 317 316 316 317 317 317 319 320 321 323 325 323 326 326 330 334 338 346 349 348 346 346 345 347 348 349 348 348 348 348 347
312 313 313 314 314 315 314 314 312 313 314 315 314 312 313 316 317 318 317 316 316 317 317 318 319 320 321 321 322 325 327 329 329 333 339 342 346 349 348 346 347 349 350 350 349 349 348 348 347
313 314 315 314 315 315 314 313 313 314 313 313 312 312 313 314 317 317 317 317 317 317 318 320 320 321 321 321 322 323 325 328 332 334 330 337 342 344 348 348 349 351 352 351 349 349 349 348 346
314 314 315 315 314 313 313 313 314 313 312 312 313 314 315 316 316 316 317 317 317 317 319 321 320 320 321 322 322 322 324 325 325 328 330 332 338 342 343 352 352 352 352 351 350 349 349 346 347
314 315 314 314 314 315 315 314 313 313 312 312 313 315 314 315 315 316 316 317 318 318 319 318 318 319 319 321 322 323 324 325 326 326 331 333 336 340 343 350 352 352 350 349 349 348 348 348 349
313 313 314 315 317 317 314 313 313 313 313 313 313 314 314 316 314 315 317 317 318 318 317 316 316 316 318 318 320 322 323 324 325 326 330 332 336 340 340 349 351 351 350 349 349 349 350 350 349
314 313 313 315 317 318 315 313 315 314 314 314 314 314 315 314 314 316 317 316 316 316 316 316 315 316 318 318 319 322 324 325 326 327 328 331 336 339 339 346 349 350 348 349 350 350 350 350 348
313 313 314 318 316 316 316 315 315 314 313 314 315 315 315 315 315 317 316 316 316 317 314 314 314 315 317 317 319 322 324 326 329 329 331 332 335 337 336 344 347 346 347 350 351 351 349 348 347
Wind_Speed
7 3 2 4 6 5 11 3 5 2 3 2 5 7 9 14 11 3 5 4 14 25 30 36 37 34 31 32 32 32 31 30 28 26 25 23 21 20 18 17 15 13 11 10 8 8 8 7 7
6 3 1 2 9 10 9 6 11 3 7 8 7 7 11 11 9 14 11 5 16 25 28 33 38 36 33 33 34 33 32 30 29 27 25 24 23 21 19 17 15 14 13 11 10 8 8 7 6
2 3 4 5 12 17 11 5 7 3 7 6 6 8 5 5 12 17 15 5 18 26 28 31 39 37 36 34 34 33 33 32 30 28 27 25 24 22 20 18 16 14 13 12 11 9 8 8 7
4 6 3 8 13 19 13 9 1 8 7 3 6 9 3 5 19 23 19 15 21 28 29 33 41 40 39 37 35 34 33 32 31 29 28 26 24 23 21 19 17 15 13 12 12 11 10 9 7
7 4 9 11 16 8 16 13 9 9 7 8 7 9 8 16 22 25 16 12 25 29 31 30 42 40 39 38 37 35 33 32 31 30 28 26 25 23 22 19 17 15 13 11 11 11 10 9 8
7 5 10 13 16 10 13 12 18 19 10 10 6 11 3 18 26 27 16 9 21 29 28 27 42 40 38 37 36 35 34 33 31 30 27 25 23 22 20 18 16 15 13 12 11 11 10 9 9
13 10 16 18 14 15 15 12 18 18 15 11 9 13 5 16 22 21 13 4 17 26 26 25 31 38 38 36 34 34 34 33 31 29 26 24 22 21 19 18 16 15 13 12 12 11 11 10 11
9 11 20 18 14 20 12 10 17 18 18 3 7 6 12 16 20 17 12 4 15 22 24 25 27 29 29 29 35 34 33 32 30 28 26 24 22 21 20 19 17 16 14 13 13 12 12 12 12
12 12 17 22 19 16 9 12 14 9 19 17 7 10 12 21 21 16 14 2 13 18 21 24 27 27 27 26 25 34 33 31 30 27 26 24 16 16 17 17 16 17 15 14 15 14 15 14 14
13 15 24 20 16 15 11 10 3 6 14 18 19 15 11 21 19 15 11 11 13 15 19 21 24 25 26 25 23 24 23 24 22 21 18 19 18 15 16 16 19 18 17 16 17 16 16 15 13
15 21 18 18 13 15 15 14 7 10 17 15 18 11 16 19 17 13 10 10 8 16 17 18 19 21 23 24 22 20 24 23 23 22 21 18 18 15 16 14 13 15 17 15 15 16 17 16 15
14 15 16 15 15 11 16 15 12 14 16 14 14 15 18 15 16 15 12 4 7 7 16 20 19 19 19 21 21 20 22 21 22 22 21 19 19 16 15 16 14 14 14 14 15 15 17 16 16
16 17 9 14 13 16 16 18 18 18 13 8 8 15 13 12 12 16 10 5 3 3 1 16 21 23 23 23 20 21 21 22 21 20 20 21 20 17 16 16 15 14 14 14 15 16 16 15 16
5 10 12 15 16 16 18 20 20 19 6 11 17 26 21 13 11 14 9 6 3 6 5 6 17 24 23 27 30 25 22 23 21 21 20 21 21 19 17 17 17 16 15 15 15 14 15 14 14
9 14 16 16 17 18 16 21 25 19 6 15 16 18 15 17 25 14 8 5 3 3 9 6 8 14 15 21 25 28 25 26 23 21 21 22 23 21 18 17 16 15 14 14 14 14 14 14 14
10 9 14 11 4 12 11 21 3 5 6 8 6 6 10 9 14 11 7 1 4 1 11 2 5 3 10 20 25 22 21 24 23 24 21 23 24 23 19 19 16 12 13 13 13 14 14 15 14
10 13 8 7 5 6 11 13 7 7 10 10 9 7 9 7 8 8 4 3 5 10 8 9 5 7 4 5 8 16 19 19 23 22 23 23 23 22 22 16 13 11 13 13 12 14 16 16 14
7 9 9 11 5 8 15 18 16 15 16 16 14 12 10 9 9 7 4 1 4 6 10 5 20 8 8 5 8 7 14 15 19 23 25 25 23 24 19 16 20 17 13 14 14 15 16 18 14
9 10 12 10 8 12 16 17 18 18 18 20 18 16 15 11 9 8 5 1 3 7 9 10 2 30 13 6 10 10 12 14 18 19 25 26 23 23 24 21 22 23 22 18 15 17 18 18 13
10 12 13 9 10 11 16 20 20 20 20 18 17 18 16 13 11 6 5 3 6 7 8 12 11 7 14 17 11 8 16 11 13 15 18 25 27 26 26 27 26 28 22 18 18 20 19 18 15
13 13 11 13 12 16 19 20 20 9 10 11 13 9 12 7 4 2 3 6 8 9 11 8 9 11 11 15 19 17 14 20 24 15 17 28 32 31 30 28 26 21 17 16 18 21 22 18 16
13 5 8 12 13 13 7 10 11 11 12 5 5 5 6 4 3 1 2 5 9 11 10 12 11 9 7 8 13 17 20 21 26 22 21 29 31 33 28 25 24 21 21 20 20 20 25 22 16
15 3 12 13 15 17 19 11 14 3 9 6 5 2 2 3 2 2 3 6 7 8 13 14 14 14 10 9 10 16 20 26 30 29 22 24 30 27 26 26 25 22 22 19 22 22 26 22 18
9 12 15 16 13 14 20 15 10 7 8 12 9 7 2 4 4 3 4 7 10 10 10 13 15 15 15 12 13 17 22 23 27 23 23 40 29 22 27 28 25 23 23 23 24 24 23 23 19
11 14 11 11 10 11 6 6 12 5 5 4 11 10 8 6 5 5 9 10 9 13 15 14 11 16 19 17 16 18 23 25 29 29 28 28 23 23 25 30 28 25 25 23 24 25 25 22 19
11 10 10 13 11 9 4 7 1 4 4 9 9 6 4 6 5 9 12 10 13 14 16 18 19 19 18 21 20 20 22 24 27 29 30 27 25 23 22 26 25 27 25 25 24 23 24 20 19
11 10 9 15 17 15 13 13 12 13 8 8 8 4 7 4 10 12 11 10 12 16 16 17 21 24 24 22 23 23 23 24 26 29 25 24 24 22 22 24 26 25 26 25 26 25 23 18 18
15 10 7 9 8 14 10 11 8 11 3 4 7 11 11 10 15 15 13 13 14 15 18 21 22 27 26 27 25 26 26 26 27 29 28 27 23 24 22 23 25 25 27 28 30 23 20 18 19
9 13 11 11 12 10 12 4 8 3 7 10 10 11 11 16 16 15 13 16 19 19 19 22 25 27 25 27 28 26 28 29 29 30 30 29 24 23 25 25 25 27 28 29 27 23 21 21 21
14 18 16 11 15 14 13 14 5 3 6 8 14 17 19 15 16 14 15 16 17 19 23 24 25 27 27 28 28 28 28 29 30 31 30 28 26 25 26 27 28 28 28 28 26 24 21 23 22
Wind_Direction
335 309 261 246 257 231 254 213 279 153 148 37 310 269 279 309 302 342 63 165 162 168 167 174 174 178 180 179 178 176 177 175 174 174 172 170 171 171 169 169 169 165 162 162 166 164 164 161 159
321 313 64 266 263 240 235 259 235 239 356 327 296 270 255 280 350 336 285 168 169 171 171 171 177 179 184 182 181 181 180 180 179 178 176 175 177 176 175 175 175 173 168 167 170 172 169 166 161
278 242 238 237 210 247 261 231 288 62 326 315 303 325 319 341 356 334 316 284 180 175 175 175 178 181 188 187 185 186 186 184 183 182 179 179 180 179 180 179 180 178 175 171 174 176 177 175 170
214 194 199 242 236 230 258 242 315 268 299 296 302 302 312 45 343 332 300 263 198 179 178 185 180 184 190 191 191 189 188 186 186 185 182 182 183 184 185 184 185 185 182 179 180 184 186 185 178
215 250 243 228 240 210 227 241 248 257 301 298 337 331 316 9 350 345 322 225 196 187 178 186 183 186 191 194 195 193 192 191 190 187 186 186 188 190 191 188 189 192 190 192 192 194 192 195 193
223 270 240 238 230 215 231 226 229 262 279 303 289 319 338 5 359 351 335 229 199 186 180 183 185 188 192 197 199 199 196 196 194 192 191 192 192 195 198 196 196 201 200 202 205 206 204 205 210
244 225 247 250 239 235 230 216 231 235 255 266 346 308 329 4 0 356 347 242 194 180 183 182 185 190 192 199 203 204 202 199 198 197 199 198 198 202 206 206 206 209 212 213 213 218 221 219 221
242 249 252 243 238 245 227 249 227 242 246 260 263 309 326 346 347 344 357 251 190 186 187 184 186 190 191 198 205 208 209 205 202 203 204 205 205 208 213 215 215 217 222 222 224 222 230 230 232
232 239 244 239 229 244 239 227 228 240 238 248 270 293 317 324 326 339 355 258 205 194 193 191 188 191 192 196 206 210 213 216 211 210 211 212 207 216 219 218 223 227 226 233 235 231 232 234 235
219 233 242 248 252 251 233 218 226 230 215 241 261 278 310 324 325 331 357 347 203 206 201 200 192 194 193 196 201 208 212 216 216 214 217 211 217 213 221 224 225 229 230 234 238 240 239 238 238
225 245 259 250 268 259 258 222 220 244 246 249 235 301 306 320 318 325 338 31 287 213 206 213 203 198 197 196 202 205 209 213 217 216 215 216 221 219 223 223 228 226 233 230 238 239 235 234 239
244 246 260 266 248 246 248 251 239 244 262 346 245 293 294 304 314 313 327 22 10 210 212 210 208 200 202 201 204 206 209 213 216 218 215 215 217 216 220 226 227 224 224 227 227 232 234 233 239
243 256 243 252 257 256 263 251 253 256 262 308 245 269 278 310 306 308 316 308 92 55 239 222 207 206 199 203 206 210 213 219 220 220 217 215 220 219 218 223 227 230 232 229 230 233 234 234 237
343 270 258 254 254 254 256 261 255 249 234 237 243 246 258 276 310 312 307 305 265 80 50 312 226 223 212 215 212 211 213 221 223 225 222 221 223 220 220 222 225 228 234 238 238 238 237 234 238
268 265 250 244 248 250 251 259 251 253 234 245 253 283 279 280 271 269 287 326 350 94 54 34 296 233 218 223 231 230 226 219 222 224 225 222 221 223 217 224 229 237 236 232 240 239 239 240 236
255 255 261 223 258 235 237 258 200 130 228 239 264 301 263 275 255 266 260 115 359 349 193 325 17 290 245 231 228 237 240 233 230 227 227 230 226 221 222 224 223 230 251 243 236 246 243 243 239
210 262 216 253 206 273 231 269 209 215 260 261 260 273 280 252 224 234 245 19 359 349 23 242 292 318 21 284 233 240 242 237 237 231 229 230 227 225 221 230 230 222 235 250 246 247 247 245 241
253 238 220 256 226 258 269 258 256 255 257 259 261 259 260 266 266 223 218 295 12 2 10 12 240 260 336 350 274 264 261 257 248 241 240 231 230 230 218 219 228 221 243 241 250 247 249 248 241
283 270 268 273 276 281 275 275 273 269 264 261 252 245 249 236 244 218 217 290 0 355 6 360 18 252 269 263 270 263 259 251 250 247 239 233 225 221 217 215 228 222 229 240 238 249 244 244 236
252 261 264 279 263 280 283 277 280 269 263 258 263 251 237 234 201 214 283 326 354 6 4 5 349 335 272 270 239 283 291 283 266 260 255 244 229 220 218 214 217 218 220 206 213 232 239 239 225
247 264 282 289 302 277 269 276 254 246 250 247 257 259 238 216 236 183 303 343 349 354 349 344 339 335 323 303 287 267 289 277 266 270 275 254 229 217 214 216 219 208 201 211 213 223 229 232 223
273 267 278 280 283 285 321 288 282 267 248 248 167 174 193 199 168 249 320 342 335 329 329 321 320 323 326 305 298 281 268 275 265 280 265 252 231 219 216 216 208 198 208 210 215 219 226 224 222
269 272 278 282 282 284 269 257 271 222 204 187 184 90 311 306 220 233 313 322 318 315 318 315 313 309 314 294 264 258 250 250 262 245 244 269 243 222 216 210 208 212 214 208 208 219 220 218 225
275 266 262 259 263 261 254 248 264 188 227 167 187 334 234 284 290 238 255 284 294 303 302 299 300 297 296 280 267 251 255 256 252 248 229 234 239 223 215 212 213 217 221 208 207 215 217 214 213
242 258 272 263 214 254 91 272 258 260 254 234 307 295 268 280 258 270 307 305 299 298 304 303 300 297 299 284 268 254 245 249 251 247 242 242 235 232 222 210 210 215 217 211 205 206 212 204 202
250 255 273 282 273 278 240 260 152 42 260 303 285 293 269 230 299 294 302 293 295 304 306 308 312 307 300 291 278 266 254 251 251 246 242 241 237 231 231 216 210 209 208 207 209 202 205 192 199
264 230 286 282 268 267 258 254 240 220 222 223 240 222 271 277 305 300 297 276 283 293 299 303 303 300 301 293 283 274 263 259 256 257 252 243 243 235 230 220 210 206 211 199 200 199 191 182 199
250 276 222 212 264 261 253 257 267 189 307 250 243 259 277 273 309 305 301 292 278 288 294 299 298 302 290 293 282 275 272 265 262 261 257 247 241 228 230 223 210 200 203 195 192 190 183 187 204
187 228 228 279 256 261 278 273 80 239 283 298 292 290 278 300 296 289 290 291 288 293 293 299 298 301 288 287 284 273 273 268 262 259 256 249 238 223 222 219 208 199 196 194 190 185 181 195 199
258 273 242 232 236 227 263 277 354 13 330 296 270 276 284 288 283 281 287 293 290 286 303 299 296 294 284 285 277 272 269 268 259 255 252 247 236 222 217 215 200 195 196 192 188 181 183 195 194